Location: Seale
(32.2974°N, 85.1688°W)
Time: 10:44:00
(UTC+00:00)

Hubble Space Telescope - Pass Details

Date: 28 January 2021
Orbit: 535 x 539 km, 28.5° (Epoch: 08 March)

Event Time Altitude Azimuth Distance (km) Brightness Sun altitude
Rises 00:47:54 0° 261° (W) 2,673 5.9 -20.8°
Reaches altitude 10° 00:51:05 10° 236° (SW) 1,781 4.3 -21.5°
Maximum altitude 00:53:14 14° 204° (SSW) 1,547 3.5 -21.9°
Drops below altitude 10° 00:55:23 10° 172° (S) 1,779 3.4 -22.4°
Enters shadow 00:55:46 - 168° (SSE) 1,862 3.5 -22.5°
